Precipitable_Water
0.56 0.55 0.55 0.57 0.58 0.58 0.57 0.54 0.48 0.40 0.41 0.50 0.49 0.58 0.57 0.53 0.46 0.39 0.34 0.35 0.31 0.35 0.38 0.39 0.37 0.37 0.37 0.36 0.38 0.41 0.41 0.42 0.45 0.48 0.50 0.54 0.61 0.64
0.55 0.54 0.55 0.57 0.57 0.57 0.55 0.51 0.47 0.43 0.36 0.42 0.42 0.41 0.38 0.34 0.33 0.31 0.30 0.28 0.29 0.31 0.34 0.33 0.32 0.33 0.33 0.32 0.32 0.32 0.31 0.33 0.35 0.36 0.39 0.43 0.47 0.52
0.58 0.58 0.56 0.55 0.49 0.43 0.40 0.39 0.37 0.37 0.31 0.30 0.30 0.28 0.26 0.27 0.26 0.26 0.27 0.26 0.26 0.28 0.33 0.32 0.31 0.31 0.31 0.31 0.32 0.33 0.33 0.33 0.31 0.29 0.30 0.33 0.38 0.43
0.54 0.47 0.36 0.35 0.35 0.36 0.34 0.32 0.32 0.31 0.27 0.24 0.26 0.25 0.25 0.26 0.26 0.27 0.27 0.28 0.29 0.29 0.30 0.31 0.31 0.33 0.32 0.32 0.32 0.31 0.30 0.29 0.30 0.29 0.30 0.31 0.31 0.33
0.37 0.36 0.36 0.35 0.34 0.34 0.32 0.30 0.29 0.27 0.26 0.24 0.24 0.27 0.27 0.28 0.27 0.27 0.27 0.26 0.26 0.28 0.28 0.29 0.30 0.30 0.30 0.29 0.29 0.29 0.27 0.26 0.27 0.27 0.26 0.28 0.29 0.29
0.38 0.36 0.36 0.35 0.32 0.31 0.29 0.28 0.27 0.26 0.26 0.26 0.26 0.26 0.27 0.28 0.28 0.25 0.24 0.26 0.25 0.27 0.28 0.28 0.27 0.26 0.25 0.26 0.27 0.25 0.27 0.28 0.28 0.29 0.29 0.28 0.27 0.29
0.38 0.37 0.36 0.32 0.31 0.29 0.27 0.26 0.25 0.26 0.26 0.26 0.24 0.24 0.25 0.25 0.25 0.26 0.24 0.25 0.26 0.28 0.27 0.26 0.23 0.22 0.23 0.24 0.23 0.26 0.27 0.29 0.29 0.29 0.29 0.27 0.28 0.29
0.38 0.35 0.34 0.32 0.31 0.29 0.28 0.28 0.29 0.27 0.26 0.24 0.25 0.24 0.23 0.25 0.25 0.25 0.24 0.24 0.21 0.27 0.25 0.21 0.24 0.23 0.23 0.22 0.23 0.25 0.27 0.28 0.29 0.29 0.29 0.30 0.30 0.28
0.34 0.33 0.32 0.31 0.31 0.31 0.31 0.31 0.32 0.31 0.30 0.29 0.25 0.25 0.24 0.25 0.25 0.24 0.25 0.24 0.22 0.23 0.23 0.18 0.23 0.21 0.22 0.24 0.25 0.24 0.24 0.27 0.28 0.28 0.29 0.30 0.30 0.29
0.35 0.34 0.32 0.31 0.33 0.31 0.31 0.30 0.30 0.30 0.31 0.30 0.29 0.27 0.27 0.27 0.27 0.27 0.25 0.22 0.21 0.22 0.23 0.17 0.20 0.20 0.23 0.23 0.24 0.24 0.24 0.23 0.24 0.26 0.28 0.29 0.30 0.30
0.35 0.34 0.33 0.33 0.34 0.34 0.30 0.28 0.29 0.28 0.31 0.30 0.29 0.30 0.31 0.30 0.27 0.24 0.19 0.18 0.16 0.19 0.22 0.19 0.20 0.21 0.21 0.21 0.23 0.23 0.23 0.24 0.24 0.24 0.26 0.28 0.30 0.29
0.33 0.34 0.35 0.33 0.30 0.30 0.29 0.28 0.25 0.25 0.27 0.26 0.25 0.26 0.24 0.22 0.22 0.23 0.22 0.19 0.19 0.17 0.22 0.21 0.21 0.23 0.17 0.22 0.23 0.23 0.23 0.23 0.25 0.25 0.26 0.28 0.28 0.26
0.32 0.32 0.32 0.31 0.29 0.30 0.30 0.28 0.26 0.29 0.26 0.24 0.23 0.22 0.21 0.21 0.23 0.24 0.25 0.24 0.22 0.20 0.24 0.25 0.23 0.23 0.22 0.20 0.22 0.23 0.24 0.22 0.24 0.25 0.24 0.24 0.26 0.27
0.31 0.30 0.30 0.30 0.29 0.29 0.29 0.29 0.29 0.27 0.24 0.23 0.21 0.20 0.21 0.22 0.24 0.26 0.26 0.26 0.27 0.26 0.27 0.27 0.24 0.24 0.22 0.20 0.19 0.23 0.24 0.24 0.24 0.23 0.26 0.27 0.26 0.27
0.31 0.30 0.28 0.29 0.29 0.29 0.29 0.28 0.26 0.23 0.22 0.21 0.21 0.21 0.23 0.25 0.25 0.25 0.27 0.29 0.29 0.29 0.28 0.27 0.27 0.27 0.26 0.23 0.21 0.22 0.22 0.22 0.24 0.25 0.27 0.26 0.26 0.29
0.29 0.28 0.29 0.29 0.28 0.28 0.26 0.25 0.24 0.24 0.23 0.23 0.22 0.23 0.24 0.23 0.23 0.25 0.24 0.25 0.23 0.23 0.27 0.29 0.29 0.27 0.24 0.25 0.25 0.22 0.23 0.22 0.25 0.25 0.27 0.27 0.27 0.34
0.28 0.27 0.26 0.25 0.23 0.23 0.23 0.23 0.24 0.24 0.22 0.23 0.23 0.23 0.23 0.24 0.24 0.26 0.25 0.24 0.23 0.23 0.23 0.26 0.28 0.29 0.28 0.27 0.23 0.24 0.24 0.25 0.24 0.25 0.26 0.23 0.28 0.35
0.26 0.24 0.23 0.22 0.21 0.21 0.21 0.21 0.22 0.22 0.23 0.24 0.24 0.24 0.24 0.24 0.24 0.26 0.27 0.25 0.23 0.23 0.24 0.25 0.25 0.25 0.25 0.26 0.28 0.24 0.24 0.23 0.24 0.25 0.27 0.25 0.26 0.31
0.23 0.22 0.21 0.21 0.21 0.21 0.21 0.22 0.22 0.24 0.25 0.24 0.24 0.25 0.25 0.26 0.26 0.25 0.25 0.25 0.25 0.25 0.25 0.26 0.26 0.25 0.20 0.18 0.24 0.28 0.23 0.23 0.25 0.24 0.27 0.26 0.26 0.29
0.21 0.21 0.21 0.21 0.21 0.21 0.22 0.23 0.23 0.24 0.24 0.24 0.25 0.26 0.26 0.26 0.25 0.25 0.26 0.25 0.25 0.26 0.26 0.27 0.26 0.25 0.23 0.21 0.21 0.23 0.27 0.25 0.26 0.25 0.25 0.27 0.29 0.32
0.21 0.21 0.22 0.22 0.22 0.23 0.23 0.23 0.24 0.24 0.25 0.25 0.26 0.26 0.27 0.27 0.26 0.26 0.26 0.26 0.26 0.26 0.24 0.24 0.26 0.29 0.29 0.28 0.22 0.22 0.23 0.27 0.31 0.28 0.27 0.26 0.24 0.24
0.22 0.22 0.23 0.23 0.23 0.23 0.24 0.24 0.24 0.24 0.24 0.25 0.26 0.27 0.27 0.27 0.26 0.26 0.26 0.25 0.25 0.26 0.25 0.26 0.28 0.29 0.27 0.24 0.21 0.21 0.21 0.24 0.29 0.29 0.31 0.31 0.26 0.20
0.23 0.23 0.24 0.24 0.24 0.24 0.24 0.25 0.25 0.25 0.25 0.25 0.26 0.26 0.27 0.26 0.27 0.27 0.27 0.26 0.26 0.26 0.26 0.25 0.27 0.28 0.26 0.25 0.23 0.22 0.22 0.23 0.24 0.23 0.25 0.30 0.30 0.28
Wind_Speed
22 22 23 24 25 25 26 26 27 27 28 28 30 32 35 37 39 40 41 42 43 43 43 43 44 44 45 45 45 45 45 45 45 46 46 46 45 44
24 24 24 25 25 26 27 28 29 30 31 32 35 36 38 40 41 42 42 44 43 44 44 45 45 46 46 46 46 46 46 47 47 47 47 47 47 46
24 25 25 26 27 28 29 30 31 32 34 36 37 39 40 41 42 43 44 44 44 44 45 45 46 46 46 47 47 47 48 48 48 48 48 48 48 48
25 25 26 27 28 30 31 32 33 35 36 38 39 40 41 42 43 44 44 44 45 45 46 45 45 46 46 46 47 48 48 49 49 49 49 50 50 50
25 26 28 28 30 31 33 34 35 37 38 40 41 42 43 43 44 44 44 45 44 45 45 45 45 46 46 48 49 50 50 51 51 51 52 52 52 52
26 28 29 30 32 33 34 35 37 38 39 41 42 43 43 44 44 44 45 44 44 45 45 46 46 48 49 50 51 52 52 53 54 54 54 54 54 54
28 29 30 31 33 34 35 37 38 39 41 41 42 43 44 44 45 45 45 45 45 45 46 46 49 50 50 52 53 53 55 56 56 57 58 58 57 56
28 29 32 33 34 36 37 38 39 40 41 41 42 43 44 45 46 45 46 46 46 46 49 51 52 52 53 53 53 54 54 56 57 57 57 57 58 58
29 31 33 34 35 36 37 38 39 40 41 42 43 44 45 45 45 46 46 48 49 51 52 53 52 53 53 51 50 52 52 52 52 54 54 55 56 57
31 32 34 35 35 36 37 38 39 40 42 42 43 44 45 45 46 46 48 50 50 50 50 51 50 50 48 48 48 47 47 48 48 49 49 50 51 52
32 33 34 35 36 37 38 39 40 41 42 42 43 44 45 45 46 47 47 49 49 47 46 48 46 47 46 45 43 43 44 44 45 45 45 45 45 47
32 33 34 35 36 37 38 39 40 41 41 43 44 44 44 45 45 46 46 46 45 45 41 43 43 43 41 40 39 41 41 42 42 42 41 40 40 41
32 33 34 35 37 37 39 40 41 42 43 43 43 44 44 45 45 44 43 42 42 41 41 41 41 40 39 40 38 39 39 40 39 38 38 37 36 36
33 33 34 36 37 39 40 41 42 43 43 43 44 45 45 43 42 41 41 40 39 39 40 39 38 38 38 39 39 39 39 38 37 35 34 34 34 34
33 34 36 37 38 39 40 41 42 42 42 43 44 44 42 41 41 39 38 37 37 36 36 35 35 36 37 38 39 38 39 35 33 32 32 30 31 31
32 34 35 37 38 38 39 39 40 42 42 43 42 41 40 39 37 36 35 34 33 32 32 33 34 35 36 36 36 37 35 32 32 31 29 28 27 27
33 34 35 36 36 37 39 40 41 41 42 41 40 39 38 36 34 33 32 31 31 31 31 32 33 34 33 34 34 35 33 31 30 28 27 24 22 21
33 33 34 35 37 38 40 41 40 40 39 38 38 37 35 34 32 31 30 30 30 31 31 32 33 33 31 31 32 32 30 29 27 25 24 20 18 17
32 33 35 36 38 39 39 39 38 37 37 36 35 33 32 31 30 30 30 30 30 30 31 32 32 32 30 30 30 30 29 27 24 23 21 18 16 14
32 34 36 37 38 38 38 37 36 35 34 33 32 31 30 30 30 30 29 30 30 30 30 30 30 30 29 29 31 30 26 23 21 21 19 16 15 13
33 35 36 36 37 36 36 35 34 33 32 32 30 30 29 29 29 28 28 29 29 28 28 29 30 30 28 28 28 26 24 21 18 18 17 15 13 12
34 35 35 35 36 35 34 33 32 32 31 30 29 29 28 28 27 27 27 27 27 27 28 29 29 27 25 25 25 25 22 19 18 17 16 15 14 13
34 34 34 34 34 33 32 31 31 30 30 29 28 27 27 26 25 25 26 26 26 26 28 28 27 26 24 23 24 22 21 19 18 18 18 17 17 17
Wind_Direction
279 283 286 289 292 294 295 297 297 298 299 298 299 299 300 301 301 301 300 299 299 297 295 295 294 293 292 291 289 288 287 286 285 284 283 281 280 280
279 282 286 289 292 293 295 296 296 297 296 298 299 299 300 301 301 301 300 300 298 297 296 296 295 294 293 292 290 289 288 286 285 284 282 281 280 278
279 282 286 289 291 293 295 296 296 296 296 297 298 299 300 301 301 301 301 300 299 299 297 297 296 295 294 292 291 290 289 287 285 284 283 281 279 278
278 282 286 288 291 293 295 296 296 297 297 298 299 300 300 301 301 301 301 301 300 299 299 298 297 296 295 294 292 291 290 288 286 285 283 281 279 277
278 282 286 289 291 293 295 296 297 297 298 299 299 300 300 301 301 302 302 302 301 300 300 299 299 298 296 295 293 292 291 289 287 285 284 281 279 278
279 284 287 289 291 294 295 296 297 298 298 299 300 300 301 302 302 303 302 302 302 301 300 300 300 299 298 296 295 293 291 289 288 286 284 282 280 277
281 284 288 290 291 293 295 297 298 298 299 300 300 301 302 302 303 303 302 302 302 302 301 301 301 300 299 298 297 294 292 290 288 286 284 282 279 277
282 285 288 289 292 294 296 297 298 299 299 300 301 302 302 302 302 303 303 303 302 302 302 302 301 300 299 298 297 295 293 292 290 287 285 282 279 277
283 286 289 291 294 296 297 298 299 300 300 301 301 302 302 303 303 302 303 302 302 303 302 302 301 300 301 300 298 297 296 293 291 289 286 283 280 277
285 288 291 293 295 298 299 299 300 301 301 302 302 302 302 302 302 302 302 302 302 303 303 302 303 302 302 301 301 300 298 297 295 292 289 286 282 280
288 291 292 295 296 298 299 300 301 302 303 302 303 302 303 303 302 303 303 303 303 304 304 303 304 303 303 303 303 303 302 301 299 296 293 290 286 283
290 292 293 295 297 299 300 301 302 303 304 304 304 303 303 303 303 303 303 303 304 304 305 305 306 307 306 306 306 306 306 305 302 300 297 294 290 289
291 293 294 296 298 300 301 302 302 303 304 304 304 304 304 303 303 303 303 303 303 304 305 306 306 306 305 307 307 309 308 307 305 302 301 298 295 292
292 294 295 297 299 301 301 302 303 303 304 304 304 304 304 304 303 302 302 302 302 303 305 305 305 306 307 308 308 309 309 308 306 303 302 301 300 296
293 295 297 298 300 301 302 303 303 304 304 305 305 305 304 304 303 303 303 302 303 304 306 307 306 307 307 307 309 311 311 310 307 305 304 303 304 303
294 296 298 299 301 301 303 303 304 305 305 306 306 305 305 304 304 303 303 304 304 306 308 309 309 310 310 309 309 311 311 309 309 308 306 305 307 311
296 298 299 300 302 303 304 305 305 306 306 305 305 305 305 305 304 304 303 304 303 306 309 311 313 312 311 311 311 311 311 310 310 309 308 306 308 314
297 298 299 302 303 305 306 306 306 306 305 306 305 305 305 304 304 304 304 304 303 305 308 311 314 314 314 315 314 313 313 311 310 310 309 304 305 316
297 299 301 303 305 306 306 306 306 306 306 306 306 305 304 304 304 304 304 304 303 304 306 310 313 315 314 316 319 316 315 312 309 309 308 303 302 305
300 302 304 305 305 306 306 306 306 306 306 306 305 305 305 304 304 304 305 305 304 305 306 310 312 314 313 316 319 318 316 313 310 311 309 301 296 294
302 303 304 305 305 305 306 306 305 306 306 305 305 305 304 305 304 305 305 306 307 307 308 310 312 313 312 315 319 319 318 315 309 311 310 301 293 288
303 303 304 304 305 305 305 305 305 305 305 305 304 304 304 304 304 306 306 307 308 308 309 312 313 313 312 314 318 320 318 316 312 309 306 300 291 284
303 303 304 305 305 305 305 305 305 305 305 305 304 304 304 304 305 306 307 308 308 309 312 313 313 313 311 313 317 319 318 316 314 312 305 300 291 285